Weather History for Deming, NM

Change the Weather History Date:

Sunday, July 28, 2013

  Actual Average Record
Temperature  
Mean Temperature 81 °F 80 °F  
Max Temperature 94 °F 93 °F 102 °F (1951)
Min Temperature 67 °F 67 °F 56 °F (1993)
Cooling Degree Days 14    
Growing Degree Days 30 (Base 50)    
Moisture  
Dew Point 60 °F    
Average Humidity 57    
Maximum Humidity 93    
Minimum Humidity 21    
Precipitation  
Precipitation T in 0.07 in 1.30 in (1987)
Month to date precipitation 2.82 1.95  
Year to date precipitation 3.33 5.06  
Sea Level Pressure  
Sea Level Pressure 29.82 in    
Wind  
Wind Speed 7 mph (WSW)    
Max Wind Speed 23 mph    
Max Gust Speed 29 mph    
Visibility 10 miles    
Events Rain , Thunderstorm    
T = Trace of Precipitation, MM = Missing Value Source: NWS Daily Summary

Daily Weather History Graph

Daily Weather History Graph

Search for Another Location

Airport:

Trip Planner

Search our weather history database for the weather conditions in past years. The results will help you decide how hot, cold, wet, or windy it might be!

Date:

Astronomy

Jul. 28, 2013 Rise Set
Actual Time 6:23 AM MDT 8:11 PM MDT
Civil Twilight 5:56 AM MDT 8:37 PM MDT
Nautical Twilight 5:23 AM MDT 9:10 PM MDT
Astronomical Twilight 4:49 AM MDT 9:44 PM MDT
Moon No Moon Rise 12:41 PM MDT (7/28)
Length of Visible Light 14h 41m
Length of Day
13h 47m
Waning Gibbous, 60% of the Moon is Illuminated
Jul 28
Waning Gibbous
Jul 29
Last Quarter
Aug 6
New
Aug 14
First Quarter
Aug 20
Full

Hourly Weather History & Observations

Time (MDT) Temp. Heat Index Dew Point Humidity Pressure Visibility Wind Dir Wind Speed Gust Speed Precip Events Conditions
12:53 AM 70.0 °F - 64.9 °F 84% 29.88 in 10.0 mi West 3.5 mph - N/A   Clear
1:53 AM 69.1 °F - 64.9 °F 87% 29.86 in 10.0 mi Calm Calm - N/A   Clear
2:53 AM 68.0 °F - 64.9 °F 90% 29.85 in 10.0 mi West 4.6 mph - N/A   Clear
3:53 AM 68.0 °F - 64.0 °F 87% 29.82 in 10.0 mi Calm Calm - N/A   Clear
4:53 AM 66.9 °F - 64.0 °F 90% 29.81 in 10.0 mi SW 3.5 mph - N/A   Clear
5:53 AM 66.9 °F - 64.0 °F 90% 29.81 in 10.0 mi WSW 3.5 mph - N/A   Clear
6:53 AM 66.9 °F - 64.0 °F 90% 29.83 in 10.0 mi WSW 3.5 mph - N/A   Clear
7:53 AM 71.1 °F - 64.9 °F 81% 29.85 in 10.0 mi West 4.6 mph - N/A   Clear
8:53 AM 75.0 °F - 64.0 °F 69% 29.86 in 10.0 mi West 5.8 mph - N/A   Clear
9:53 AM 78.1 °F - 64.0 °F 62% 29.85 in 10.0 mi West 9.2 mph - N/A   Clear
10:53 AM 81.0 °F 82.5 °F 64.0 °F 56% 29.84 in 10.0 mi West 12.7 mph - N/A   Clear
11:53 AM 86.0 °F 86.3 °F 62.1 °F 44% 29.83 in 10.0 mi NW 10.4 mph 16.1 mph N/A   Clear
12:53 PM 84.0 °F 84.4 °F 61.0 °F 46% 29.81 in 10.0 mi West 6.9 mph 20.7 mph 0.00 in Rain Light Rain
1:15 PM 84.2 °F 83.5 °F 57.2 °F 40% 30.03 in 10.0 mi WSW 16.1 mph 21.9 mph 0.00 in Thunderstorm Thunderstorm
1:53 PM 73.9 °F - 63.0 °F 68% 29.82 in 10.0 mi SSW 10.4 mph - 0.00 in Rain , Thunderstorm Light Rain
2:11 PM 75.2 °F - 62.6 °F 65% 30.01 in 10.0 mi South 9.2 mph - 0.00 in   Scattered Clouds
2:53 PM 87.1 °F 87.5 °F 62.1 °F 43% 29.75 in 10.0 mi SW 10.4 mph 16.1 mph 0.00 in   Clear
3:53 PM 93.9 °F 91.4 °F 53.1 °F 25% 29.71 in 10.0 mi West 16.1 mph 23.0 mph N/A   Scattered Clouds
4:53 PM 91.9 °F - 46.9 °F 21% 29.71 in 10.0 mi West 17.3 mph 23.0 mph N/A   Clear
5:33 PM 91.4 °F 89.4 °F 55.4 °F 29% 29.96 in 10.0 mi West 15.0 mph 23.0 mph N/A   Clear
5:53 PM 90.0 °F 87.7 °F 54.0 °F 29% 29.72 in 10.0 mi West 11.5 mph 20.7 mph N/A   Clear
6:53 PM 88.0 °F 85.7 °F 53.1 °F 30% 29.73 in 10.0 mi West 12.7 mph - N/A   Clear
7:53 PM 87.1 °F - 52.0 °F 30% 29.74 in 10.0 mi West 12.7 mph - N/A   Clear
8:53 PM 84.0 °F 82.9 °F 55.0 °F 37% 29.75 in 10.0 mi ENE 5.8 mph - N/A   Partly Cloudy
9:53 PM 82.0 °F 81.6 °F 55.9 °F 41% 29.78 in 10.0 mi WSW 8.1 mph - N/A   Partly Cloudy
10:53 PM 77.0 °F - 57.9 °F 52% 29.80 in 10.0 mi Calm Calm - N/A   Clear
11:53 PM 75.0 °F - 57.9 °F 55% 29.79 in 10.0 mi WSW 8.1 mph - N/A   Clear